TimeEDT,TemperatureF,Dew PointF,Humidity,Sea Level PressureIn,VisibilityMPH,Wind Direction,Wind SpeedMPH,Gust SpeedMPH,PrecipitationIn,Events,Conditions,WindDirDegrees,DateUTC
12:15 AM,76.1,70.7,83,29.88,10.0,SSW,5.8,-,N/A,,Clear,210,2013-06-13 04:15:00
12:35 AM,75.6,70.9,85,29.87,10.0,SSW,4.6,-,N/A,,Clear,210,2013-06-13 04:35:00
12:55 AM,75.2,71.1,87,29.86,10.0,SSW,5.8,-,N/A,,Clear,200,2013-06-13 04:55:00
1:15 AM,75.6,71.4,87,29.86,10.0,SW,5.8,-,N/A,,Clear,220,2013-06-13 05:15:00
1:35 AM,76.3,71.6,85,29.85,10.0,SSW,5.8,-,N/A,,Clear,210,2013-06-13 05:35:00
1:55 AM,75.7,71.6,87,29.85,10.0,SSW,5.8,-,N/A,,Clear,210,2013-06-13 05:55:00
2:15 AM,75.7,71.6,87,29.84,10.0,SSW,5.8,-,N/A,,Clear,210,2013-06-13 06:15:00
2:35 AM,75.9,71.6,86,29.84,10.0,SW,5.8,-,N/A,,Clear,220,2013-06-13 06:35:00
2:55 AM,75.6,71.6,87,29.84,10.0,SW,3.5,-,N/A,,Clear,230,2013-06-13 06:55:00
3:15 AM,75.2,71.6,89,29.84,7.0,SSW,4.6,-,N/A,,Clear,210,2013-06-13 07:15:00
3:35 AM,74.7,71.4,90,29.83,10.0,SW,5.8,-,N/A,,Clear,220,2013-06-13 07:35:00
3:55 AM,74.5,71.2,90,29.82,7.0,SW,6.9,-,N/A,,Clear,220,2013-06-13 07:55:00
4:15 AM,73.9,71.1,91,29.82,7.0,SW,4.6,-,N/A,,Clear,220,2013-06-13 08:15:00
4:35 AM,73.8,70.9,91,29.81,7.0,SSW,4.6,-,N/A,,Clear,210,2013-06-13 08:35:00
4:55 AM,73.4,70.7,91,29.81,7.0,SSW,4.6,-,N/A,,Clear,210,2013-06-13 08:55:00
5:15 AM,73.4,70.9,92,29.80,7.0,SSW,3.5,-,N/A,,Clear,210,2013-06-13 09:15:00
5:35 AM,72.9,70.7,93,29.80,7.0,South,5.8,-,N/A,,Clear,190,2013-06-13 09:35:00
5:55 AM,72.9,70.7,93,29.79,5.0,South,3.5,-,N/A,,Clear,190,2013-06-13 09:55:00
6:15 AM,73.0,70.9,93,29.79,4.0,SSW,5.8,-,N/A,,Clear,210,2013-06-13 10:15:00
6:35 AM,73.4,71.1,92,29.79,5.0,SSW,5.8,-,N/A,,Clear,210,2013-06-13 10:35:00
6:55 AM,73.9,71.6,92,29.79,4.0,SW,5.8,-,N/A,,Clear,220,2013-06-13 10:55:00
7:15 AM,74.7,72.0,91,29.79,5.0,SSW,8.1,-,N/A,,Clear,210,2013-06-13 11:15:00
7:35 AM,76.1,72.1,87,29.78,7.0,SSW,6.9,-,N/A,,Clear,200,2013-06-13 11:35:00
7:55 AM,77.2,72.5,85,29.79,7.0,SSW,6.9,-,N/A,,Clear,210,2013-06-13 11:55:00
8:15 AM,77.9,72.7,84,29.79,10.0,SSW,5.8,-,N/A,,Clear,210,2013-06-13 12:15:00
8:35 AM,79.3,73.0,81,29.79,10.0,SSW,5.8,-,N/A,,Clear,210,2013-06-13 12:35:00
8:55 AM,80.2,72.3,77,29.78,10.0,SSW,8.1,-,N/A,,Clear,210,2013-06-13 12:55:00
9:15 AM,81.1,71.4,72,29.78,10.0,SSW,9.2,-,N/A,,Clear,200,2013-06-13 13:15:00
9:35 AM,82.6,72.0,70,29.78,10.0,SW,6.9,-,N/A,,Clear,220,2013-06-13 13:35:00
9:55 AM,83.3,72.0,68,29.78,10.0,SSW,5.8,-,N/A,,Clear,210,2013-06-13 13:55:00
10:15 AM,84.4,72.0,66,29.77,10.0,SW,6.9,-,N/A,,Clear,230,2013-06-13 14:15:00
10:35 AM,86.0,70.7,60,29.77,10.0,WSW,4.6,-,N/A,,Clear,250,2013-06-13 14:35:00
10:55 AM,86.9,71.1,59,29.77,10.0,SW,8.1,-,N/A,,Clear,220,2013-06-13 14:55:00
11:15 AM,87.6,69.8,55,29.76,10.0,SW,9.2,-,N/A,,Clear,230,2013-06-13 15:15:00
11:35 AM,88.0,66.7,49,29.74,10.0,SW,13.8,18.4,N/A,,Clear,220,2013-06-13 15:35:00
11:55 AM,88.9,64.9,45,29.73,10.0,WSW,10.4,17.3,N/A,,Clear,250,2013-06-13 15:55:00
12:15 PM,89.6,65.1,44,29.71,10.0,WSW,9.2,18.4,N/A,,Clear,240,2013-06-13 16:15:00
12:35 PM,90.5,67.1,46,29.71,10.0,SSW,12.7,17.3,N/A,,Clear,210,2013-06-13 16:35:00
12:55 PM,90.5,66.0,44,29.69,10.0,SSW,16.1,20.7,N/A,,Clear,210,2013-06-13 16:55:00
1:15 PM,90.7,65.8,44,29.69,10.0,SSW,17.3,23.0,N/A,,Clear,200,2013-06-13 17:15:00
1:35 PM,91.4,65.5,42,29.67,10.0,SSW,12.7,20.7,N/A,,Clear,200,2013-06-13 17:35:00
1:55 PM,91.6,66.7,44,29.67,10.0,SW,12.7,19.6,N/A,,Clear,220,2013-06-13 17:55:00
2:15 PM,91.6,67.1,44,29.66,10.0,SSW,15.0,23.0,N/A,,Clear,210,2013-06-13 18:15:00
2:35 PM,91.9,67.8,45,29.65,10.0,SSW,15.0,20.7,N/A,,Clear,210,2013-06-13 18:35:00
2:55 PM,91.6,62.1,37,29.65,10.0,SW,21.9,26.5,N/A,,Clear,230,2013-06-13 18:55:00
3:15 PM,91.6,63.5,39,29.64,10.0,WSW,13.8,24.2,N/A,,Clear,240,2013-06-13 19:15:00
3:35 PM,91.8,64.2,40,29.64,10.0,SW,19.6,26.5,N/A,,Clear,230,2013-06-13 19:35:00
3:55 PM,92.3,65.5,41,29.62,10.0,SSW,17.3,23.0,N/A,,Clear,210,2013-06-13 19:55:00
4:15 PM,91.8,64.4,40,29.61,10.0,SW,19.6,28.8,N/A,,Clear,220,2013-06-13 20:15:00
4:35 PM,91.9,64.0,39,29.61,10.0,SW,15.0,26.5,N/A,,Clear,220,2013-06-13 20:35:00
4:55 PM,91.6,64.2,40,29.61,10.0,SW,13.8,23.0,N/A,,Clear,230,2013-06-13 20:55:00
5:15 PM,83.1,56.3,40,29.66,10.0,NW,21.9,35.7,N/A,,Mostly Cloudy,310,2013-06-13 21:15:00
5:35 PM,78.3,55.9,46,29.71,10.0,West,23.0,36.8,N/A,,Overcast,260,2013-06-13 21:35:00
5:55 PM,68.2,62.8,83,29.69,7.0,SW,11.5,16.1,0.21,Rain,Rain,220,2013-06-13 21:55:00
6:15 PM,68.0,63.1,84,29.69,10.0,SW,10.4,-,N/A,Rain,Light Rain,220,2013-06-13 22:15:00
6:35 PM,67.5,62.6,84,29.69,7.0,SSW,9.2,-,0.03,Rain,Rain,210,2013-06-13 22:35:00
6:55 PM,66.9,63.3,88,29.64,10.0,NW,3.5,-,0.05,Rain,Light Rain,320,2013-06-13 22:55:00
7:15 PM,67.6,63.7,87,29.65,10.0,SW,6.9,-,N/A,,Scattered Clouds,220,2013-06-13 23:15:00
7:35 PM,67.5,64.4,90,29.66,10.0,SSW,8.1,-,N/A,,Clear,210,2013-06-13 23:35:00
7:55 PM,67.5,64.4,90,29.68,10.0,SW,10.4,-,N/A,,Clear,230,2013-06-13 23:55:00
8:15 PM,67.8,64.8,90,29.69,10.0,SW,8.1,-,N/A,,Scattered Clouds,220,2013-06-14 00:15:00
8:35 PM,68.2,65.5,91,29.69,10.0,SW,6.9,-,N/A,,Mostly Cloudy,230,2013-06-14 00:35:00
8:55 PM,68.2,65.5,91,29.69,10.0,WSW,6.9,-,N/A,,Mostly Cloudy,240,2013-06-14 00:55:00
9:15 PM,68.4,65.3,90,29.69,10.0,WSW,4.6,-,N/A,,Scattered Clouds,240,2013-06-14 01:15:00
9:35 PM,68.2,65.3,90,29.69,10.0,SW,4.6,-,N/A,,Scattered Clouds,230,2013-06-14 01:35:00
9:55 PM,68.0,65.1,90,29.70,10.0,WSW,3.5,-,N/A,,Clear,250,2013-06-14 01:55:00
10:15 PM,68.0,64.9,90,29.69,10.0,SW,5.8,-,N/A,,Clear,230,2013-06-14 02:15:00
10:35 PM,68.2,64.9,89,29.70,10.0,WSW,3.5,-,N/A,,Clear,250,2013-06-14 02:35:00
10:55 PM,67.5,64.8,91,29.70,10.0,WSW,3.5,-,N/A,,Clear,240,2013-06-14 02:55:00
11:15 PM,67.6,64.6,90,29.71,10.0,WSW,4.6,-,N/A,,Clear,250,2013-06-14 03:15:00
11:35 PM,68.2,64.4,88,29.71,10.0,West,6.9,-,N/A,,Clear,280,2013-06-14 03:35:00
11:55 PM,68.2,64.4,88,29.72,10.0,West,5.8,-,N/A,,Clear,270,2013-06-14 03:55:00